Date_Time,Julian_Date,Latitude,Longitude,Instrument_Depth,U,V,Speed,Direction
(yyyy-mm-dd hh:mn:ss UTC),(JD),(+ deg. North),(+ deg. East),(m),(cm/s),(cm/s),(cm/s),(deg True)
1993-01-18 10:00:00 UTC,2449005.916667,27.8350,-95.0694,0190,15.73,2.29,15.8958,81.7170
1993-01-18 10:30:00 UTC,2449005.937500,27.8350,-95.0694,0190,17.63,5.62,18.5041,72.3190
1993-01-18 11:00:00 UTC,2449005.958333,27.8350,-95.0694,0190,17.28,3.82,17.6972,77.5344
1993-01-18 11:30:00 UTC,2449005.979167,27.8350,-95.0694,0190,16.88,2.76,17.1042,80.7139
1993-01-18 12:00:00 UTC,2449006.000000,27.8350,-95.0694,0190,14.86,2.06,15.0021,82.1075
1993-01-18 12:30:00 UTC,2449006.020833,27.8350,-95.0694,0190,14.50,0.32,14.5035,88.7357
1993-01-18 13:00:00 UTC,2449006.041667,27.8350,-95.0694,0190,13.59,0.54,13.6007,87.7245
1993-01-18 13:30:00 UTC,2449006.062500,27.8350,-95.0694,0190,12.97,0.92,13.0026,85.9426
1993-01-18 14:00:00 UTC,2449006.083333,27.8350,-95.0694,0190,11.61,2.63,11.9042,77.2363
1993-01-18 14:30:00 UTC,2449006.104167,27.8350,-95.0694,0190,10.98,3.73,11.5963,71.2369
1993-01-18 15:00:00 UTC,2449006.125000,27.8350,-95.0694,0190,11.00,6.35,12.7013,60.0033
1993-01-18 15:30:00 UTC,2449006.145833,27.8350,-95.0694,0190,11.45,8.40,14.2008,53.7353
1993-01-18 16:00:00 UTC,2449006.166667,27.8350,-95.0694,0190,12.41,9.45,15.5984,52.7114
1993-01-18 16:30:00 UTC,2449006.187500,27.8350,-95.0694,0190,13.73,10.19,17.0982,53.4183
1993-01-18 17:00:00 UTC,2449006.208333,27.8350,-95.0694,0190,13.42,9.60,16.5002,54.4220
1993-01-18 17:30:00 UTC,2449006.229167,27.8350,-95.0694,0190,13.18,9.43,16.2061,54.4171
1993-01-18 18:00:00 UTC,2449006.250000,27.8350,-95.0694,0190,12.89,9.81,16.1984,52.7269
1993-01-18 18:30:00 UTC,2449006.270833,27.8350,-95.0694,0190,12.70,9.56,15.8960,53.0292
1993-01-18 19:00:00 UTC,2449006.291667,27.8350,-95.0694,0190,12.58,9.23,15.6029,53.7323
1993-01-18 19:30:00 UTC,2449006.312500,27.8350,-95.0694,0190,12.17,10.24,15.9049,49.9223
1993-01-18 20:00:00 UTC,2449006.333333,27.8350,-95.0694,0190,10.69,9.35,14.2021,48.8255
1993-01-18 20:30:00 UTC,2449006.354167,27.8350,-95.0694,0190,10.21,10.98,14.9935,42.9189
1993-01-18 21:00:00 UTC,2449006.375000,27.8350,-95.0694,0190,11.23,10.83,15.6013,46.0388
1993-01-18 21:30:00 UTC,2449006.395833,27.8350,-95.0694,0190,11.85,8.35,14.4964,54.8299
1993-01-18 22:00:00 UTC,2449006.416667,27.8350,-95.0694,0190,11.87,7.24,13.9038,58.6193
1993-01-18 22:30:00 UTC,2449006.437500,27.8350,-95.0694,0190,11.34,6.36,13.0017,60.7143
1993-01-18 23:00:00 UTC,2449006.458333,27.8350,-95.0694,0190,12.05,8.06,14.4971,56.2222
1993-01-18 23:30:00 UTC,2449006.479167,27.8350,-95.0694,0190,11.85,8.35,14.4964,54.8299
1993-01-19 00:00:00 UTC,2449006.500000,27.8350,-95.0694,0190,11.40,6.85,13.2997,58.9993
1993-01-19 00:30:00 UTC,2449006.520833,27.8350,-95.0694,0190,11.06,4.92,12.1050,66.0183
1993-01-19 01:00:00 UTC,2449006.541667,27.8350,-95.0694,0190,9.11,3.60,9.7955,68.4375
1993-01-19 01:30:00 UTC,2449006.562500,27.8350,-95.0694,0190,7.35,4.66,8.7028,57.6247
1993-01-19 02:00:00 UTC,2449006.583333,27.8350,-95.0694,0190,6.97,4.13,8.1017,59.3516
1993-01-19 02:30:00 UTC,2449006.604167,27.8350,-95.0694,0190,7.23,4.84,8.7005,56.2003
1993-01-19 03:00:00 UTC,2449006.625000,27.8350,-95.0694,0190,6.92,4.76,8.3990,55.4774
1993-01-19 03:30:00 UTC,2449006.645833,27.8350,-95.0694,0190,6.67,5.89,8.8984,48.5536
1993-01-19 04:00:00 UTC,2449006.666667,27.8350,-95.0694,0190,5.89,7.83,9.7980,36.9518
1993-01-19 04:30:00 UTC,2449006.687500,27.8350,-95.0694,0190,6.01,9.21,10.9975,33.1265
1993-01-19 05:00:00 UTC,2449006.708333,27.8350,-95.0694,0190,6.34,8.99,11.0007,35.1926
1993-01-19 05:30:00 UTC,2449006.729167,27.8350,-95.0694,0190,5.82,8.25,10.0963,35.2012
1993-01-19 06:00:00 UTC,2449006.750000,27.8350,-95.0694,0190,6.17,7.61,9.7970,39.0343
1993-01-19 06:30:00 UTC,2449006.770833,27.8350,-95.0694,0190,7.18,7.10,10.0976,45.3210
1993-01-19 07:00:00 UTC,2449006.791667,27.8350,-95.0694,0190,6.62,6.39,9.2009,46.0128
1993-01-19 07:30:00 UTC,2449006.812500,27.8350,-95.0694,0190,8.37,4.49,9.4983,61.7891
1993-01-19 08:00:00 UTC,2449006.833333,27.8350,-95.0694,0190,9.93,3.99,10.7016,68.1091
1993-01-19 08:30:00 UTC,2449006.854167,27.8350,-95.0694,0190,10.40,3.60,11.0055,70.9065
1993-01-19 09:00:00 UTC,2449006.875000,27.8350,-95.0694,0190,11.48,3.82,12.0989,71.5950
1993-01-19 09:30:00 UTC,2449006.895833,27.8350,-95.0694,0190,10.56,3.08,11.0000,73.7398
1993-01-19 10:00:00 UTC,2449006.916667,27.8350,-95.0694,0190,10.61,2.90,10.9992,74.7129
1993-01-19 10:30:00 UTC,2449006.937500,27.8350,-95.0694,0190,10.49,2.11,10.7001,78.6271
1993-01-19 11:00:00 UTC,2449006.958333,27.8350,-95.0694,0190,10.41,2.49,10.7037,76.5480
1993-01-19 11:30:00 UTC,2449006.979167,27.8350,-95.0694,0190,9.82,2.35,10.0973,76.5418
1993-01-19 12:00:00 UTC,2449007.000000,27.8350,-95.0694,0190,8.96,2.10,9.2028,76.8094
1993-01-19 12:30:00 UTC,2449007.020833,27.8350,-95.0694,0190,8.41,2.23,8.7006,75.1492
1993-01-19 13:00:00 UTC,2449007.041667,27.8350,-95.0694,0190,8.35,3.07,8.8965,69.8133
1993-01-19 13:30:00 UTC,2449007.062500,27.8350,-95.0694,0190,8.38,3.80,9.2013,65.6076
1993-01-19 14:00:00 UTC,2449007.083333,27.8350,-95.0694,0190,7.54,4.73,8.9008,57.8991
1993-01-19 14:30:00 UTC,2449007.104167,27.8350,-95.0694,0190,7.40,4.95,8.9029,56.2207
1993-01-19 15:00:00 UTC,2449007.125000,27.8350,-95.0694,0190,8.36,5.67,10.1014,55.8537
1993-01-19 15:30:00 UTC,2449007.145833,27.8350,-95.0694,0190,6.74,5.81,8.8985,49.2381
1993-01-19 16:00:00 UTC,2449007.166667,27.8350,-95.0694,0190,6.04,5.83,8.3947,46.0135
1993-01-19 16:30:00 UTC,2449007.187500,27.8350,-95.0694,0190,5.27,5.75,7.7997,42.5059
1993-01-19 17:00:00 UTC,2449007.208333,27.8350,-95.0694,0190,5.94,5.94,8.4004,45.0000
1993-01-19 17:30:00 UTC,2449007.229167,27.8350,-95.0694,0190,6.89,6.09,9.1957,48.5269
1993-01-19 18:00:00 UTC,2449007.250000,27.8350,-95.0694,0190,7.00,6.43,9.5050,47.4303
1993-01-19 18:30:00 UTC,2449007.270833,27.8350,-95.0694,0190,5.88,6.41,8.6984,42.5307
1993-01-19 19:00:00 UTC,2449007.291667,27.8350,-95.0694,0190,5.64,6.22,8.3963,42.2002
1993-01-19 19:30:00 UTC,2449007.312500,27.8350,-95.0694,0190,7.08,5.06,8.7023,54.4470
1993-01-19 20:00:00 UTC,2449007.333333,27.8350,-95.0694,0190,7.29,4.75,8.7010,56.9126
1993-01-19 20:30:00 UTC,2449007.354167,27.8350,-95.0694,0190,7.30,5.09,8.8993,55.1135
1993-01-19 21:00:00 UTC,2449007.375000,27.8350,-95.0694,0190,6.64,4.63,8.0948,55.1124
1993-01-19 21:30:00 UTC,2449007.395833,27.8350,-95.0694,0190,7.49,2.19,7.8036,73.7016
1993-01-19 22:00:00 UTC,2449007.416667,27.8350,-95.0694,0190,6.74,1.49,6.9027,77.5342
1993-01-19 22:30:00 UTC,2449007.437500,27.8350,-95.0694,0190,5.65,0.78,5.7036,82.1398
1993-01-19 23:00:00 UTC,2449007.458333,27.8350,-95.0694,0190,5.50,-0.01,5.5000,90.1042
1993-01-19 23:30:00 UTC,2449007.479167,27.8350,-95.0694,0190,4.00,-0.18,4.0040,92.5766
1993-01-20 00:00:00 UTC,2449007.500000,27.8350,-95.0694,0190,2.80,-0.11,2.8022,92.2497
1993-01-20 00:30:00 UTC,2449007.520833,27.8350,-95.0694,0190,1.10,-0.03,1.1004,91.5622
1993-01-20 01:00:00 UTC,2449007.541667,27.8350,-95.0694,0190,1.10,-0.02,1.1002,91.0416
1993-01-20 01:30:00 UTC,2449007.562500,27.8350,-95.0694,0190,1.10,-0.02,1.1002,91.0416
1993-01-20 02:00:00 UTC,2449007.583333,27.8350,-95.0694,0190,1.10,0.03,1.1004,88.4378
1993-01-20 02:30:00 UTC,2449007.604167,27.8350,-95.0694,0190,1.10,0.01,1.1000,89.4791
1993-01-20 03:00:00 UTC,2449007.625000,27.8350,-95.0694,0190,1.10,-0.06,1.1016,93.1221
1993-01-20 03:30:00 UTC,2449007.645833,27.8350,-95.0694,0190,1.67,-0.30,1.6967,100.1840
1993-01-20 04:00:00 UTC,2449007.666667,27.8350,-95.0694,0190,-0.83,-1.13,1.4021,216.2978
1993-01-20 04:30:00 UTC,2449007.687500,27.8350,-95.0694,0190,-3.40,-0.14,3.4029,267.6421
1993-01-20 05:00:00 UTC,2449007.708333,27.8350,-95.0694,0190,-4.95,1.60,5.2022,287.9125
1993-01-20 05:30:00 UTC,2449007.729167,27.8350,-95.0694,0190,-5.46,2.49,6.0010,294.5151
1993-01-20 06:00:00 UTC,2449007.750000,27.8350,-95.0694,0190,-5.56,3.56,6.6021,302.6310
1993-01-20 06:30:00 UTC,2449007.770833,27.8350,-95.0694,0190,-5.26,3.98,6.5961,307.1131
1993-01-20 07:00:00 UTC,2449007.791667,27.8350,-95.0694,0190,-4.74,4.59,6.5982,314.0789
1993-01-20 07:30:00 UTC,2449007.812500,27.8350,-95.0694,0190,-3.92,4.93,6.2985,321.5107
1993-01-20 08:00:00 UTC,2449007.833333,27.8350,-95.0694,0190,-3.13,4.77,5.7052,326.7277
1993-01-20 08:30:00 UTC,2449007.854167,27.8350,-95.0694,0190,-2.88,4.33,5.2003,326.3710
1993-01-20 09:00:00 UTC,2449007.875000,27.8350,-95.0694,0190,-2.51,3.49,4.2989,324.2764
1993-01-20 09:30:00 UTC,2449007.895833,27.8350,-95.0694,0190,-2.00,2.36,3.0935,319.7201
1993-01-20 10:00:00 UTC,2449007.916667,27.8350,-95.0694,0190,-0.97,1.01,1.4004,316.1573
1993-01-20 10:30:00 UTC,2449007.937500,27.8350,-95.0694,0190,-0.79,0.77,1.1032,314.2655
1993-01-20 11:00:00 UTC,2449007.958333,27.8350,-95.0694,0190,-0.85,0.70,1.1011,309.4725
1993-01-20 11:30:00 UTC,2449007.979167,27.8350,-95.0694,0190,-3.06,0.48,3.0974,278.9149
1993-01-20 12:00:00 UTC,2449008.000000,27.8350,-95.0694,0190,-4.28,0.37,4.2960,274.9409
1993-01-20 12:30:00 UTC,2449008.020833,27.8350,-95.0694,0190,-6.27,0.58,6.2968,275.2850
1993-01-20 13:00:00 UTC,2449008.041667,27.8350,-95.0694,0190,-7.48,0.51,7.4974,273.9005
1993-01-20 13:30:00 UTC,2449008.062500,27.8350,-95.0694,0190,-8.03,1.09,8.1036,277.7301
1993-01-20 14:00:00 UTC,2449008.083333,27.8350,-95.0694,0190,-7.38,2.53,7.8016,288.9227
1993-01-20 14:30:00 UTC,2449008.104167,27.8350,-95.0694,0190,-7.49,4.42,8.6969,300.5457
1993-01-20 15:00:00 UTC,2449008.125000,27.8350,-95.0694,0190,-7.42,4.55,8.7040,301.5169
1993-01-20 15:30:00 UTC,2449008.145833,27.8350,-95.0694,0190,-6.28,5.12,8.1026,309.1899
1993-01-20 16:00:00 UTC,2449008.166667,27.8350,-95.0694,0190,-5.60,5.43,7.8003,314.1170
1993-01-20 16:30:00 UTC,2449008.187500,27.8350,-95.0694,0190,-4.86,4.90,6.9014,315.2348
1993-01-20 17:00:00 UTC,2449008.208333,27.8350,-95.0694,0190,-4.29,5.40,6.8967,321.5348
1993-01-20 17:30:00 UTC,2449008.229167,27.8350,-95.0694,0190,-3.89,5.70,6.9009,325.6882
1993-01-20 18:00:00 UTC,2449008.250000,27.8350,-95.0694,0190,-2.54,5.77,6.3043,336.2405
1993-01-20 18:30:00 UTC,2449008.270833,27.8350,-95.0694,0190,-2.30,5.87,6.3045,338.6036
1993-01-20 19:00:00 UTC,2449008.291667,27.8350,-95.0694,0190,-1.59,3.67,3.9996,336.5757
1993-01-20 19:30:00 UTC,2449008.312500,27.8350,-95.0694,0190,-2.29,2.09,3.1004,312.3856
1993-01-20 20:00:00 UTC,2449008.333333,27.8350,-95.0694,0190,-2.20,0.67,2.2998,286.9379
1993-01-20 20:30:00 UTC,2449008.354167,27.8350,-95.0694,0190,-1.97,0.32,1.9958,279.2263
1993-01-20 21:00:00 UTC,2449008.375000,27.8350,-95.0694,0190,-1.39,0.14,1.3970,275.7514
1993-01-20 21:30:00 UTC,2449008.395833,27.8350,-95.0694,0190,-1.81,-1.42,2.3005,231.8847
1993-01-20 22:00:00 UTC,2449008.416667,27.8350,-95.0694,0190,-1.86,-3.20,3.7013,210.1673
1993-01-20 22:30:00 UTC,2449008.437500,27.8350,-95.0694,0190,-2.32,-3.97,4.5982,210.3013
1993-01-20 23:00:00 UTC,2449008.458333,27.8350,-95.0694,0190,-3.10,-5.48,6.2961,209.4966
1993-01-20 23:30:00 UTC,2449008.479167,27.8350,-95.0694,0190,-3.40,-5.31,6.3052,212.6315
1993-01-21 00:00:00 UTC,2449008.500000,27.8350,-95.0694,0190,-4.35,-7.18,8.3949,211.2096
1993-01-21 00:30:00 UTC,2449008.520833,27.8350,-95.0694,0190,-5.44,-8.51,10.1002,212.5887
1993-01-21 01:00:00 UTC,2449008.541667,27.8350,-95.0694,0190,-6.48,-8.89,11.0010,216.0887
1993-01-21 01:30:00 UTC,2449008.562500,27.8350,-95.0694,0190,-6.71,-6.73,9.5035,224.9147
1993-01-21 02:00:00 UTC,2449008.583333,27.8350,-95.0694,0190,-8.37,-6.17,10.3984,233.6040
1993-01-21 02:30:00 UTC,2449008.604167,27.8350,-95.0694,0190,-9.89,-6.06,11.5990,238.5025
1993-01-21 03:00:00 UTC,2449008.625000,27.8350,-95.0694,0190,-10.71,-5.19,11.9013,244.1455
1993-01-21 03:30:00 UTC,2449008.645833,27.8350,-95.0694,0190,-11.66,-5.04,12.7026,246.6237
1993-01-21 04:00:00 UTC,2449008.666667,27.8350,-95.0694,0190,-11.87,-5.30,12.9995,245.9391
1993-01-21 04:30:00 UTC,2449008.687500,27.8350,-95.0694,0190,-12.64,-4.15,13.3038,251.8238
1993-01-21 05:00:00 UTC,2449008.708333,27.8350,-95.0694,0190,-13.37,-2.47,13.5962,259.5331
1993-01-21 05:30:00 UTC,2449008.729167,27.8350,-95.0694,0190,-12.90,-1.65,13.0051,262.7111
1993-01-21 06:00:00 UTC,2449008.750000,27.8350,-95.0694,0190,-11.23,-1.29,11.3038,263.4471
1993-01-21 06:30:00 UTC,2449008.770833,27.8350,-95.0694,0190,-9.13,-1.12,9.1984,263.0063
1993-01-21 07:00:00 UTC,2449008.791667,27.8350,-95.0694,0190,-8.32,-1.17,8.4019,261.9953
1993-01-21 07:30:00 UTC,2449008.812500,27.8350,-95.0694,0190,-7.90,-2.86,8.4018,250.0985
1993-01-21 08:00:00 UTC,2449008.833333,27.8350,-95.0694,0190,-7.76,-4.37,8.9059,240.6142
1993-01-21 08:30:00 UTC,2449008.854167,27.8350,-95.0694,0190,-8.65,-5.21,10.0979,238.9389
1993-01-21 09:00:00 UTC,2449008.875000,27.8350,-95.0694,0190,-8.14,-5.46,9.8016,236.1478
1993-01-21 09:30:00 UTC,2449008.895833,27.8350,-95.0694,0190,-7.22,-7.06,10.0981,225.6420
1993-01-21 10:00:00 UTC,2449008.916667,27.8350,-95.0694,0190,-6.25,-7.55,9.8013,219.6185
1993-01-21 10:30:00 UTC,2449008.937500,27.8350,-95.0694,0190,-6.72,-8.32,10.6949,218.9276
1993-01-21 11:00:00 UTC,2449008.958333,27.8350,-95.0694,0190,-7.74,-9.69,12.4018,218.6165
1993-01-21 11:30:00 UTC,2449008.979167,27.8350,-95.0694,0190,-8.87,-10.31,13.6005,220.7064
1993-01-21 12:00:00 UTC,2449009.000000,27.8350,-95.0694,0190,-9.00,-9.38,12.9994,223.8156
1993-01-21 12:30:00 UTC,2449009.020833,27.8350,-95.0694,0190,-9.12,-9.27,13.0041,224.5327
1993-01-21 13:00:00 UTC,2449009.041667,27.8350,-95.0694,0190,-9.17,-8.34,12.3953,227.7139
1993-01-21 13:30:00 UTC,2449009.062500,27.8350,-95.0694,0190,-8.77,-7.59,11.5983,229.1254
1993-01-21 14:00:00 UTC,2449009.083333,27.8350,-95.0694,0190,-9.39,-6.81,11.5995,234.0489
1993-01-21 14:30:00 UTC,2449009.104167,27.8350,-95.0694,0190,-9.06,-5.70,10.7039,237.8244
1993-01-21 15:00:00 UTC,2449009.125000,27.8350,-95.0694,0190,-8.84,-4.89,10.1024,241.0501
1993-01-21 15:30:00 UTC,2449009.145833,27.8350,-95.0694,0190,-8.27,-3.29,8.9004,248.3062
1993-01-21 16:00:00 UTC,2449009.166667,27.8350,-95.0694,0190,-7.31,-1.67,7.4983,257.1314
1993-01-21 16:30:00 UTC,2449009.187500,27.8350,-95.0694,0190,-5.62,-0.97,5.7031,260.2074
1993-01-21 17:00:00 UTC,2449009.208333,27.8350,-95.0694,0190,-5.45,-0.73,5.4987,262.3709
1993-01-21 17:30:00 UTC,2449009.229167,27.8350,-95.0694,0190,-5.15,-0.72,5.2001,262.0413
1993-01-21 18:00:00 UTC,2449009.250000,27.8350,-95.0694,0190,-5.20,0.04,5.2002,270.4407
1993-01-21 18:30:00 UTC,2449009.270833,27.8350,-95.0694,0190,-3.97,0.52,4.0039,277.4622
1993-01-21 19:00:00 UTC,2449009.291667,27.8350,-95.0694,0190,-1.40,0.10,1.4036,274.0856
1993-01-21 19:30:00 UTC,2449009.312500,27.8350,-95.0694,0190,-1.69,-0.22,1.7043,262.5831
1993-01-21 20:00:00 UTC,2449009.333333,27.8350,-95.0694,0190,-2.19,-0.69,2.2961,252.5120
1993-01-21 20:30:00 UTC,2449009.354167,27.8350,-95.0694,0190,-2.43,-1.39,2.7995,240.2297
1993-01-21 21:00:00 UTC,2449009.375000,27.8350,-95.0694,0190,-3.49,-3.86,5.2038,222.1182
1993-01-21 21:30:00 UTC,2449009.395833,27.8350,-95.0694,0190,-3.41,-6.68,7.5000,207.0434
1993-01-21 22:00:00 UTC,2449009.416667,27.8350,-95.0694,0190,-3.66,-6.20,7.1997,210.5543
1993-01-21 22:30:00 UTC,2449009.437500,27.8350,-95.0694,0190,-4.07,-5.94,7.2006,214.4184
1993-01-21 23:00:00 UTC,2449009.458333,27.8350,-95.0694,0190,-3.65,-3.71,5.2045,224.5329
1993-01-21 23:30:00 UTC,2449009.479167,27.8350,-95.0694,0190,-3.19,-3.32,4.6042,223.8560
1993-01-22 00:00:00 UTC,2449009.500000,27.8350,-95.0694,0190,-2.80,-3.65,4.6003,217.4927
1993-01-22 00:30:00 UTC,2449009.520833,27.8350,-95.0694,0190,-3.45,-4.54,5.7021,217.2316
1993-01-22 01:00:00 UTC,2449009.541667,27.8350,-95.0694,0190,-3.21,-3.30,4.6037,224.2079
1993-01-22 01:30:00 UTC,2449009.562500,27.8350,-95.0694,0190,-3.93,-3.40,5.1966,229.1356
1993-01-22 02:00:00 UTC,2449009.583333,27.8350,-95.0694,0190,-3.98,-2.86,4.9010,234.2993
1993-01-22 02:30:00 UTC,2449009.604167,27.8350,-95.0694,0190,-3.64,-2.29,4.3004,237.8251
1993-01-22 03:00:00 UTC,2449009.625000,27.8350,-95.0694,0190,-4.39,-2.79,5.2016,237.5626
1993-01-22 03:30:00 UTC,2449009.645833,27.8350,-95.0694,0190,-4.40,-2.77,5.1993,237.8077
1993-01-22 04:00:00 UTC,2449009.666667,27.8350,-95.0694,0190,-5.58,-4.05,6.8948,234.0276
1993-01-22 04:30:00 UTC,2449009.687500,27.8350,-95.0694,0190,-6.31,-4.58,7.7970,234.0267
1993-01-22 05:00:00 UTC,2449009.708333,27.8350,-95.0694,0190,-7.05,-4.56,8.3962,237.1049
1993-01-22 05:30:00 UTC,2449009.729167,27.8350,-95.0694,0190,-7.22,-4.30,8.4035,239.2233
1993-01-22 06:00:00 UTC,2449009.750000,27.8350,-95.0694,0190,-7.09,-3.92,8.1015,241.0622
1993-01-22 06:30:00 UTC,2449009.770833,27.8350,-95.0694,0190,-7.66,-5.09,9.1969,236.3963
1993-01-22 07:00:00 UTC,2449009.791667,27.8350,-95.0694,0190,-7.85,-5.35,9.4997,235.7245
1993-01-22 07:30:00 UTC,2449009.812500,27.8350,-95.0694,0190,-8.82,-6.57,10.9981,233.3177
1993-01-22 08:00:00 UTC,2449009.833333,27.8350,-95.0694,0190,-8.99,-5.81,10.7040,237.1265
1993-01-22 08:30:00 UTC,2449009.854167,27.8350,-95.0694,0190,-9.96,-6.51,11.8988,236.8308
1993-01-22 09:00:00 UTC,2449009.875000,27.8350,-95.0694,0190,-9.59,-5.40,11.0058,240.6167
1993-01-22 09:30:00 UTC,2449009.895833,27.8350,-95.0694,0190,-10.58,-6.48,12.4067,238.5135
1993-01-22 10:00:00 UTC,2449009.916667,27.8350,-95.0694,0190,-10.99,-6.37,12.7026,239.9026
1993-01-22 10:30:00 UTC,2449009.937500,27.8350,-95.0694,0190,-11.40,-5.60,12.7012,243.8384
1993-01-22 11:00:00 UTC,2449009.958333,27.8350,-95.0694,0190,-11.71,-4.07,12.3971,250.8343
1993-01-22 11:30:00 UTC,2449009.979167,27.8350,-95.0694,0190,-11.31,-2.59,11.6028,257.1016
1993-01-22 12:00:00 UTC,2449010.000000,27.8350,-95.0694,0190,-10.07,-0.74,10.0972,265.7971
1993-01-22 12:30:00 UTC,2449010.020833,27.8350,-95.0694,0190,-10.66,0.92,10.6996,274.9326
1993-01-22 13:00:00 UTC,2449010.041667,27.8350,-95.0694,0190,-10.91,1.42,11.0020,277.4157
1993-01-22 13:30:00 UTC,2449010.062500,27.8350,-95.0694,0190,-9.68,2.87,10.0965,286.5144
1993-01-22 14:00:00 UTC,2449010.083333,27.8350,-95.0694,0190,-9.86,3.32,10.4039,288.6091
1993-01-22 14:30:00 UTC,2449010.104167,27.8350,-95.0694,0190,-10.08,3.59,10.7002,289.6034
1993-01-22 15:00:00 UTC,2449010.125000,27.8350,-95.0694,0190,-10.20,3.22,10.6962,287.5202
1993-01-22 15:30:00 UTC,2449010.145833,27.8350,-95.0694,0190,-8.96,2.07,9.1960,283.0086
1993-01-22 16:00:00 UTC,2449010.166667,27.8350,-95.0694,0190,-7.42,1.10,7.5011,278.4326
1993-01-22 16:30:00 UTC,2449010.187500,27.8350,-95.0694,0190,-8.10,-0.04,8.1001,269.7171
1993-01-22 17:00:00 UTC,2449010.208333,27.8350,-95.0694,0190,-6.88,-0.50,6.8981,265.8434
1993-01-22 17:30:00 UTC,2449010.229167,27.8350,-95.0694,0190,-8.32,-1.12,8.3950,262.3332
1993-01-22 18:00:00 UTC,2449010.250000,27.8350,-95.0694,0190,-7.84,-2.05,8.1036,255.3464
1993-01-22 18:30:00 UTC,2449010.270833,27.8350,-95.0694,0190,-6.80,-2.37,7.2012,250.7851
1993-01-22 19:00:00 UTC,2449010.291667,27.8350,-95.0694,0190,-7.14,-3.15,7.8040,246.1941
1993-01-22 19:30:00 UTC,2449010.312500,27.8350,-95.0694,0190,-7.28,-4.76,8.6980,236.8215
1993-01-22 20:00:00 UTC,2449010.333333,27.8350,-95.0694,0190,-9.18,-6.59,11.3005,234.3268
1993-01-22 20:30:00 UTC,2449010.354167,27.8350,-95.0694,0190,-10.03,-7.28,12.3935,234.0270
1993-01-22 21:00:00 UTC,2449010.375000,27.8350,-95.0694,0190,-11.07,-6.23,12.7027,240.6300
1993-01-22 21:30:00 UTC,2449010.395833,27.8350,-95.0694,0190,-12.09,-6.23,13.6008,242.7379
1993-01-22 22:00:00 UTC,2449010.416667,27.8350,-95.0694,0190,-13.24,-6.62,14.8028,243.4350
1993-01-22 22:30:00 UTC,2449010.437500,27.8350,-95.0694,0190,-12.46,-7.42,14.5020,239.2260
1993-01-22 23:00:00 UTC,2449010.458333,27.8350,-95.0694,0190,-14.85,-7.20,16.5034,244.1336
1993-01-22 23:30:00 UTC,2449010.479167,27.8350,-95.0694,0190,-16.74,-7.13,18.1952,246.9296
1993-01-23 00:00:00 UTC,2449010.500000,27.8350,-95.0694,0190,-19.19,-5.64,20.0016,253.6218
1993-01-23 00:30:00 UTC,2449010.520833,27.8350,-95.0694,0190,-20.26,-3.75,20.6041,259.5136
1993-01-23 01:00:00 UTC,2449010.541667,27.8350,-95.0694,0190,-19.57,-4.12,19.9990,258.1114
1993-01-23 01:30:00 UTC,2449010.562500,27.8350,-95.0694,0190,-20.55,-3.80,20.8984,259.5235
1993-01-23 02:00:00 UTC,2449010.583333,27.8350,-95.0694,0190,-21.49,-3.01,21.6998,262.0267
1993-01-23 02:30:00 UTC,2449010.604167,27.8350,-95.0694,0190,-21.15,-1.40,21.1963,266.2129
1993-01-23 03:00:00 UTC,2449010.625000,27.8350,-95.0694,0190,-20.25,-1.48,20.3040,265.8199
1993-01-23 03:30:00 UTC,2449010.645833,27.8350,-95.0694,0190,-19.09,-0.56,19.0982,268.3197
1993-01-23 04:00:00 UTC,2449010.666667,27.8350,-95.0694,0190,-20.89,-0.76,20.9038,267.9164
1993-01-23 04:30:00 UTC,2449010.687500,27.8350,-95.0694,0190,-21.20,0.01,21.2000,270.0270
1993-01-23 05:00:00 UTC,2449010.708333,27.8350,-95.0694,0190,-20.59,0.65,20.6003,271.8082
1993-01-23 05:30:00 UTC,2449010.729167,27.8350,-95.0694,0190,-21.19,0.78,21.2043,272.1081
1993-01-23 06:00:00 UTC,2449010.750000,27.8350,-95.0694,0190,-18.76,1.29,18.8043,273.9337
1993-01-23 06:30:00 UTC,2449010.770833,27.8350,-95.0694,0190,-15.84,1.36,15.8983,274.9073
1993-01-23 07:00:00 UTC,2449010.791667,27.8350,-95.0694,0190,-17.90,1.89,17.9995,276.0273
1993-01-23 07:30:00 UTC,2449010.812500,27.8350,-95.0694,0190,-16.42,1.62,16.4997,275.6346
1993-01-23 08:00:00 UTC,2449010.833333,27.8350,-95.0694,0190,-14.94,1.39,15.0045,275.3154
1993-01-23 08:30:00 UTC,2449010.854167,27.8350,-95.0694,0190,-16.18,0.80,16.1998,272.8306
1993-01-23 09:00:00 UTC,2449010.875000,27.8350,-95.0694,0190,-16.20,-0.39,16.2047,268.6209
1993-01-23 09:30:00 UTC,2449010.895833,27.8350,-95.0694,0190,-16.58,-2.74,16.8049,260.6161
1993-01-23 10:00:00 UTC,2449010.916667,27.8350,-95.0694,0190,-16.76,-3.40,17.1014,258.5324
1993-01-23 10:30:00 UTC,2449010.937500,27.8350,-95.0694,0190,-17.39,-3.31,17.7022,259.2233
1993-01-23 11:00:00 UTC,2449010.958333,27.8350,-95.0694,0190,-17.87,-4.78,18.4982,255.0247
1993-01-23 11:30:00 UTC,2449010.979167,27.8350,-95.0694,0190,-18.22,-5.74,19.1028,252.5136
1993-01-23 12:00:00 UTC,2449011.000000,27.8350,-95.0694,0190,-18.22,-5.74,19.1028,252.5136
1993-01-23 12:30:00 UTC,2449011.020833,27.8350,-95.0694,0190,-19.82,-6.62,20.8963,251.5304
1993-01-23 13:00:00 UTC,2449011.041667,27.8350,-95.0694,0190,-21.56,-6.79,22.6039,252.5190
1993-01-23 13:30:00 UTC,2449011.062500,27.8350,-95.0694,0190,-21.56,-6.79,22.6039,252.5190
1993-01-23 14:00:00 UTC,2449011.083333,27.8350,-95.0694,0190,-21.82,-4.59,22.2975,258.1206
1993-01-23 14:30:00 UTC,2449011.104167,27.8350,-95.0694,0190,-22.00,-3.63,22.2975,260.6306
1993-01-23 15:00:00 UTC,2449011.125000,27.8350,-95.0694,0190,-20.92,-3.45,21.2026,260.6354
1993-01-23 15:30:00 UTC,2449011.145833,27.8350,-95.0694,0190,-19.16,-3.06,19.4028,260.9261
1993-01-23 16:00:00 UTC,2449011.166667,27.8350,-95.0694,0190,-19.33,-3.82,19.7038,258.8212
1993-01-23 16:30:00 UTC,2449011.187500,27.8350,-95.0694,0190,-20.92,-4.51,21.4006,257.8342
1993-01-23 17:00:00 UTC,2449011.208333,27.8350,-95.0694,0190,-22.32,-3.57,22.6037,260.9127
1993-01-23 17:30:00 UTC,2449011.229167,27.8350,-95.0694,0190,-22.84,-4.06,23.1980,259.9205
1993-01-23 18:00:00 UTC,2449011.250000,27.8350,-95.0694,0190,-21.72,-3.47,21.9954,260.9231
1993-01-23 18:30:00 UTC,2449011.270833,27.8350,-95.0694,0190,-20.99,-2.94,21.1949,262.0266
1993-01-23 19:00:00 UTC,2449011.291667,27.8350,-95.0694,0190,-20.73,-2.65,20.8987,262.7151
1993-01-23 19:30:00 UTC,2449011.312500,27.8350,-95.0694,0190,-20.71,-2.79,20.8971,262.3275
1993-01-23 20:00:00 UTC,2449011.333333,27.8350,-95.0694,0190,-20.97,-4.26,21.3983,258.5168
1993-01-23 20:30:00 UTC,2449011.354167,27.8350,-95.0694,0190,-21.45,-4.90,22.0026,257.1323
1993-01-23 21:00:00 UTC,2449011.375000,27.8350,-95.0694,0190,-21.18,-4.73,21.7017,257.4111
1993-01-23 21:30:00 UTC,2449011.395833,27.8350,-95.0694,0190,-21.90,-5.57,22.5972,255.7301
1993-01-23 22:00:00 UTC,2449011.416667,27.8350,-95.0694,0190,-20.82,-7.12,22.0038,251.1204
1993-01-23 22:30:00 UTC,2449011.437500,27.8350,-95.0694,0190,-20.54,-7.88,21.9997,249.0111
1993-01-23 23:00:00 UTC,2449011.458333,27.8350,-95.0694,0190,-20.41,-8.99,22.3022,246.2279
1993-01-23 23:30:00 UTC,2449011.479167,27.8350,-95.0694,0190,-20.75,-10.38,23.2014,243.4239